[[{"header":{"parameterUnit":"m.s-1","parameterCategory":1,"la1":30.2991,"la2":30.254,"lo1":-89.0895,"lo2":-89.0444,"dy":0.0017,"dx":0.0017,"nx":28,"ny":28,"refTime":"2024-05-01T21:00:00:Z","depth":0,"parameterNumber":2,"parameterNumberName":"U-component_of_WINDS"},"data":[0,0,0,0,0,0,0,0,0,0,0,0,0,0,0,0,0,0,0,0,0,0,0,0,0,0,0,0,0,0,0,0,0,0,0,0,0,0,0,0,0,0,0,0,0,0,0,0,0,0,0,0,0,0,0,0,0,0,-1.1251,-1.1251,0,-1.1163,-1.1162,-1.1161,-1.111,-1.111,-1.111,-1.111,-1.1017,-1.1014,-1.1012,0,0,0,0,0,0,0,0,0,0,0,0,0,-1.1377,-1.1375,-1.1252,-1.125,-1.1249,-1.1163,-1.1162,-1.116,-1.111,-1.111,-1.111,-1.1109,-1.1017,-1.1015,-1.1012,0,0,0,0,0,0,0,0,0,0,0,0,0,-1.1309,-1.1374,-1.1252,-1.1214,-1.121,-1.1163,-1.1162,-1.116,-1.111,-1.111,-1.111,-1.1109,-1.1018,-1.1015,-1.1012,-1.0995,0,0,-1.1001,-1.0999,0,0,0,0,0,0,0,0,-1.1313,-1.1304,-1.1221,-1.1216,-1.1211,-1.1147,-1.1172,-1.1105,-1.111,-1.1148,-1.111,-1.1109,-1.106,-1.1053,-1.1037,-1.0991,-1.0987,-1.1001,-1.0999,-1.0997,-1.0996,0,0,0,0,0,0,0,-1.1318,-1.1308,-1.1216,-1.1219,-1.1214,-1.1201,-1.1191,-1.1159,-1.1106,-1.1144,-1.1141,-1.1131,-1.1058,-1.1041,-1.1035,-1.0986,-1.1001,-1.0998,-1.0996,-1.0994,-1.0924,-1.0924,0,0,0,0,0,0,-1.1329,-1.1312,-1.1219,-1.1214,-1.1263,-1.1199,-1.1188,-1.1168,-1.1107,-1.1097,-1.1131,-1.1129,-1.1047,-1.1039,-1.1031,-1.1009,-1.0997,-1.0994,-1.0992,-1.0924,-1.0924,-1.0924,0,0,0,0,0,0,-1.1331,-1.1321,-1.1223,-1.1262,-1.1248,-1.1197,-1.1175,-1.1166,-1.1149,-1.1097,-1.1087,-1.1123,-1.1046,-1.1036,-1.1005,-1.1005,-1.0992,-1.0989,-1.0923,-1.0924,-1.0924,-1.0964,0,0,0,0,0,0,-1.1335,-1.1322,-1.1315,-1.1262,-1.1247,-1.1198,-1.1175,-1.1165,-1.1144,-1.114,-1.1087,-1.1078,-1.1045,-1.1011,-1.1002,-1.1,-1.0986,-1.0923,-1.0923,-1.0924,-1.0963,-1.0966,-1.0969,0,0,0,0,0,-1.134,-1.1329,-1.1315,-1.1304,-1.1237,-1.1198,-1.1189,-1.1153,-1.1144,-1.1137,-1.1103,-1.1079,-1.1007,-1.1008,-1.0997,-1.0995,-1.0923,-1.0923,-1.0924,-1.0961,-1.0965,-1.0969,0,0,0,0,0,0,-1.1382,-1.1322,-1.1305,-1.1277,-1.1244,-1.119,-1.118,-1.1158,-1.1125,-1.1123,-1.1078,-1.1067,-1.1041,-1.1014,-1.1017,-1.0977,-1.0962,-1.0961,-1.0994,-1.0998,-1.1001,-1.1007,-1.0984,0,0,0,0,0,-1.1389,-1.1363,-1.1311,-1.1291,-1.1276,-1.1231,-1.1213,-1.1188,-1.1151,-1.1136,-1.11,-1.1065,-1.1034,-1.1015,-1.0983,-1.0959,-1.0947,-1.0952,-1.0955,-1.0958,-1.0957,-1.0944,-1.0945,-1.0926,-1.0926,-1.0926,0,0,-1.1401,-1.1365,-1.1351,-1.1299,-1.127,-1.1244,-1.1219,-1.1192,-1.1173,-1.1131,-1.11,-1.1073,-1.1031,-1.1004,-1.099,-1.0982,-1.096,-1.0959,-1.0961,-1.0958,-1.0944,-1.0946,-1.0948,-1.0926,-1.0926,-1.0926,0,0,-1.141,-1.138,-1.1361,-1.1333,-1.129,-1.1261,-1.1257,-1.1207,-1.1188,-1.1156,-1.1125,-1.1102,-1.1049,-1.1021,-1.1,-1.1002,-1.0979,-1.0993,-1.1008,-1.0995,-1.0997,-1.0998,-1.0999,-1.1,-1.0992,-1.0992,-1.0992,0,-1.1431,-1.1391,-1.1354,-1.133,-1.1308,-1.1271,-1.1252,-1.1226,-1.1175,-1.1161,-1.1153,-1.1088,-1.1057,-1.1023,-1.1024,-1.1008,-1.1002,-1.0998,-1.1,-1.1001,-1.1001,-1.1002,-1.1002,-1.0994,-1.0994,-1.0994,-1.0993,0,-1.1419,-1.1392,-1.1382,-1.1335,-1.1312,-1.129,-1.125,-1.1232,-1.121,-1.1182,-1.1151,-1.1113,-1.1074,-1.1064,-1.1041,-1.1028,-1.1024,-1.1008,-1.0993,-1.1006,-1.1005,-1.1005,-1.0997,-1.0996,-1.0996,-1.0995,0,0,-1.145,-1.1385,-1.1382,-1.1361,-1.1312,-1.129,-1.1267,-1.123,-1.1216,-1.1183,-1.1163,-1.1121,-1.1107,-1.1083,-1.1057,-1.1046,-1.1051,-1.1032,-1.103,-1.1037,-1.1035,-1.1047,-1.1047,-1.1036,-1.1036,-1.1036,-1.1038,0,-1.1452,-1.141,-1.1377,-1.1347,-1.1322,-1.1288,-1.1269,-1.1237,-1.1211,-1.1186,-1.1157,-1.1128,-1.1111,-1.1097,-1.1085,-1.1053,-1.105,-1.1052,-1.1017,-1.1016,-1.1028,-1.1047,-1.1059,-1.1063,-1.1038,-1.1038,-1.1038,0,-1.1448,-1.1418,-1.1386,-1.1342,-1.133,-1.1313,-1.1277,-1.1254,-1.1218,-1.12,-1.1175,-1.1148,-1.1123,-1.1112,-1.1077,-1.1079,-1.1063,-1.1046,-1.1045,-1.104,-1.1027,-1.1042,-1.1063,-1.1064,-1.1037,-1.1037,-1.1037,0,-1.1475,-1.1426,-1.1401,-1.1384,-1.1331,-1.132,-1.1297,-1.1261,-1.1242,-1.1211,-1.1198,-1.1164,-1.1146,-1.1121,-1.1087,-1.1081,-1.1056,-1.1041,-1.104,-1.1041,-1.1035,-1.1036,-1.1054,-1.1026,-1.1026,-1.1026,-1.1026,0,-1.148,-1.1462,-1.1412,-1.1397,-1.1376,-1.1339,-1.1319,-1.1293,-1.1262,-1.1241,-1.121,-1.1191,-1.1147,-1.1123,-1.1096,-1.1072,-1.1064,-1.1049,-1.1042,-1.1051,-1.1053,-1.1039,-1.1038,-1.1026,-1.1026,-1.1026,-1.1026,0,-1.1506,-1.1471,-1.1442,-1.1395,-1.1383,-1.137,-1.133,-1.1314,-1.1287,-1.1262,-1.1253,-1.1211,-1.1182,-1.1146,-1.1104,-1.1086,-1.1065,-1.1054,-1.1077,-1.1073,-1.1074,-1.1075,-1.1083,-1.1083,-1.1056,-1.1056,-1.1057,0,-1.1511,-1.1496,-1.1449,-1.1433,-1.1412,-1.1387,-1.1368,-1.1331,-1.1312,-1.1272,-1.1261,-1.1229,-1.1202,-1.1156,-1.1122,-1.109,-1.1079,-1.1084,-1.1074,-1.1084,-1.1079,-1.108,-1.1079,-1.1086,-1.1087,-1.1087,-1.1088,0,-1.1524,-1.1509,-1.1482,-1.145,-1.1429,-1.1401,-1.1373,-1.1362,-1.132,-1.13,-1.127,-1.1249,-1.1208,-1.1177,-1.1142,-1.1119,-1.1097,-1.1092,-1.109,-1.1099,-1.1113,-1.1106,-1.1084,-1.1091,-1.1091,-1.109,-1.109,-1.109,-1.1539,-1.1526,-1.1491,-1.1463,-1.1438,-1.1413,-1.1396,-1.1368,-1.1343,-1.1307,-1.1287,-1.1258,-1.1224,-1.1174,-1.1152,-1.1129,-1.1121,-1.1118,-1.1117,-1.1117,-1.112,-1.1118,-1.1122,-1.1122,-1.1122,-1.1122,-1.1122,0,-1.1551,-1.1528,-1.1503,-1.1465,-1.1443,-1.1425,-1.1394,-1.1377,-1.1352,-1.1322,-1.1296,-1.1263,-1.1234,-1.1198,-1.1166,-1.1155,-1.1144,-1.1148,-1.1148,-1.1143,-1.1129,-1.1134,-1.1157,-1.1157,-1.1157,-1.1157,-1.1157,-1.1157,-1.1555,-1.1531,-1.1512,-1.1475,-1.1452,-1.1424,-1.1407,-1.1384,-1.136,-1.1325,-1.1301,-1.1278,-1.1246,-1.1213,-1.1185,-1.1176,-1.1165,-1.1172,-1.116,-1.1147,-1.1144,-1.1141,-1.1145,-1.1171,-1.1171,-1.1175,-1.1176,-1.1176]},{"header":{"parameterUnit":"m.s-1","parameterCategory":1,"la1":30.2991,"la2":30.254,"lo1":-89.0895,"lo2":-89.0444,"dy":0.0017,"dx":0.0017,"nx":28,"ny":28,"refTime":"2024-05-01T21:00:00:Z","depth":0,"parameterNumber":3,"parameterNumberName":"V-component_of_WINDS"},"data":[0,0,0,0,0,0,0,0,0,0,0,0,0,0,0,0,0,0,0,0,0,0,0,0,0,0,0,0,0,0,0,0,0,0,0,0,0,0,0,0,0,0,0,0,0,0,0,0,0,0,0,0,0,0,0,0,0,0,3.0266,3.0266,0,3.0226,3.0225,3.0225,3.0256,3.0257,3.0259,3.026,3.0214,3.0212,3.0209,0,0,0,0,0,0,0,0,0,0,0,0,0,3.0366,3.0364,3.0266,3.0266,3.0265,3.0226,3.0225,3.0225,3.0256,3.0257,3.0259,3.0261,3.0215,3.0212,3.0209,0,0,0,0,0,0,0,0,0,0,0,0,0,3.0324,3.0363,3.0266,3.0276,3.0277,3.0226,3.0225,3.0225,3.0255,3.0258,3.026,3.0261,3.0216,3.0212,3.0209,3.0145,0,0,3.0197,3.0196,0,0,0,0,0,0,0,0,3.0326,3.032,3.0275,3.0275,3.0276,3.0248,3.0244,3.0198,3.0255,3.0263,3.026,3.0262,3.0224,3.0219,3.0207,3.0143,3.0141,3.0197,3.0195,3.0193,3.0192,0,0,0,0,0,0,0,3.0329,3.0322,3.025,3.0274,3.0275,3.0281,3.0277,3.0235,3.0232,3.0263,3.0265,3.026,3.0224,3.0211,3.0206,3.014,3.0197,3.0194,3.0192,3.019,3.0021,3.0019,0,0,0,0,0,0,3.0331,3.0324,3.0251,3.0249,3.0307,3.0278,3.0273,3.0255,3.0233,3.0232,3.0258,3.0262,3.0216,3.0211,3.0205,3.0128,3.0193,3.019,3.0188,3.0023,3.0021,3.0018,0,0,0,0,0,0,3.0333,3.0325,3.0253,3.0287,3.0279,3.0274,3.0253,3.0253,3.024,3.023,3.0229,3.0245,3.0218,3.021,3.016,3.0127,3.0188,3.0185,3.0026,3.0023,3.0019,2.9974,0,0,0,0,0,0,3.0336,3.0325,3.0302,3.0286,3.0277,3.021,3.0251,3.0251,3.0234,3.0238,3.0217,3.0216,3.0219,3.0165,3.0156,3.0123,3.0182,3.0029,3.0024,3.002,2.9978,2.997,2.9962,0,0,0,0,0,3.034,3.029,3.0301,3.0292,3.0247,3.0208,3.0202,3.0207,3.0231,3.0207,3.02,3.0216,3.0133,3.016,3.015,3.0115,3.0031,3.0026,3.0021,2.9982,2.9971,2.9962,0,0,0,0,0,0,3.03,3.0288,3.03,3.0244,3.0227,3.0213,3.0183,3.0196,3.017,3.0175,3.0182,3.0177,3.0124,3.0115,3.0145,3.0052,3.0085,3.0078,3.0059,3.0049,3.0041,3.0043,3.0179,0,0,0,0,0,3.0285,3.0255,3.0246,3.0197,3.0188,3.0187,3.017,3.0176,3.0158,3.015,3.014,3.0121,3.009,3.0069,3.0041,2.9978,2.9973,2.9949,2.9941,2.9934,2.9927,2.9892,2.9881,3.0001,3.0002,3.0002,0,0,3.0253,3.0243,3.0223,3.0189,3.0177,3.0144,3.018,3.0145,3.012,3.0144,3.0096,3.0088,3.0067,3.001,2.9985,3.0001,2.9893,2.9928,2.9923,2.9919,2.9886,2.9874,2.9864,2.9998,2.9999,2.9999,0,0,3.0178,3.0168,3.0126,3.0113,3.0094,3.0094,3.0084,3.0068,3.0064,3.0017,3.0034,3.0005,2.9952,2.9936,2.9921,2.984,2.9854,2.9831,2.9787,2.9753,2.9743,2.9735,2.9704,2.9694,2.9824,2.9824,2.9824,0,3.014,3.0093,3.0102,3.0065,3.0049,3.0071,3.0028,3.0015,2.9987,2.9974,2.9994,2.9928,2.9915,2.9854,2.9835,2.9823,2.981,2.9832,2.9744,2.9736,2.9728,2.9699,2.9688,2.9821,2.9822,2.9822,2.9822,0,3.0046,3.0013,2.9981,2.9955,2.9936,2.9896,2.9898,2.9877,2.9885,2.9882,2.9832,2.9819,2.9787,2.9774,2.978,2.9713,2.9724,2.9744,2.9777,2.9714,2.9686,2.9676,2.9817,2.9818,2.9819,2.982,0,0,2.9943,2.9924,2.9911,2.99,2.9881,2.9855,2.9816,2.9786,2.9767,2.9748,2.9714,2.9669,2.9687,2.967,2.9676,2.9646,2.9581,2.9669,2.9669,2.9652,2.9505,2.9489,2.9476,2.9591,2.9589,2.9588,2.9506,0,2.9865,2.9798,2.9806,2.9741,2.971,2.9731,2.9697,2.9681,2.9677,2.9649,2.9645,2.9613,2.964,2.963,2.9602,2.9595,2.9552,2.9602,2.9558,2.9556,2.956,2.9462,2.9445,2.9369,2.9496,2.9494,2.9493,0,2.9766,2.9744,2.9676,2.9662,2.9649,2.9618,2.9592,2.9565,2.9547,2.9547,2.9528,2.9539,2.9498,2.9534,2.9477,2.9511,2.9494,2.9488,2.9485,2.9479,2.9519,2.9452,2.9345,2.9332,2.9477,2.9478,2.9479,0,2.9695,2.9648,2.9602,2.9591,2.9574,2.9552,2.9543,2.9528,2.9509,2.9486,2.9474,2.9446,2.943,2.9407,2.9409,2.9436,2.9351,2.9387,2.9347,2.9347,2.9326,2.9327,2.9213,2.9319,2.9319,2.9319,2.9319,0,2.9606,2.9563,2.957,2.954,2.9493,2.9502,2.9454,2.9449,2.9435,2.9404,2.9421,2.9391,2.9397,2.9367,2.9369,2.9321,2.9314,2.9311,2.9311,2.9308,2.9308,2.9295,2.93,2.9316,2.9317,2.9317,2.9318,0,2.9518,2.9521,2.9471,2.946,2.9456,2.9421,2.941,2.9382,2.9381,2.9342,2.9333,2.933,2.9296,2.9297,2.9258,2.9259,2.9199,2.9206,2.9205,2.9206,2.9165,2.9168,2.9037,2.9019,2.9138,2.9137,2.9136,0,2.946,2.9428,2.9414,2.9395,2.9386,2.9355,2.9337,2.9345,2.9325,2.9303,2.9277,2.9245,2.9219,2.9163,2.9157,2.9127,2.9133,2.9089,2.9128,2.9126,2.913,2.9131,2.9127,2.908,2.9079,2.9078,2.9077,0,2.9357,2.936,2.9334,2.9309,2.9287,2.9267,2.9248,2.9231,2.9237,2.9214,2.918,2.916,2.9121,2.9088,2.906,2.905,2.9063,2.9065,2.9054,2.9049,2.9049,2.9047,2.9182,2.9067,2.9068,2.9069,2.9069,2.907,2.9281,2.9254,2.9239,2.9209,2.9196,2.9179,2.9152,2.9148,2.912,2.9089,2.9096,2.9057,2.904,2.9003,2.899,2.896,2.8975,2.8959,2.8955,2.895,2.8945,2.9056,2.8955,2.8955,2.8955,2.8955,2.8956,0,2.9178,2.917,2.9142,2.9117,2.9093,2.911,2.9091,2.9069,2.9035,2.9019,2.8994,2.8954,2.8923,2.8915,2.8884,2.8861,2.8866,2.8852,2.8853,2.885,2.8934,2.8946,2.8848,2.8848,2.8848,2.8848,2.8848,2.8848,2.9121,2.9074,2.9076,2.9022,2.9014,2.8978,2.8965,2.8948,2.8935,2.8891,2.8865,2.8861,2.8847,2.8815,2.8787,2.8785,2.8772,2.8755,2.8756,2.8833,2.8844,2.8854,2.8865,2.8753,2.8753,2.8674,2.8673,2.8673]}]]